When you browse on this site, cookies collect data to enhance your experience and personalize the content and advertising you see.
Visit our Privacy Policy to learn more. By continuing to use the site, you agree to this use of cookies and data.
  • In Hungary
  • List of Countries
  • For 7 days
  • Water Temperature
  • Weather Map
  • News
  • Weather Widgets
  • user-avatar
    Login

    Hourly Weather Krzeczyn

    Today, 6 December, Friday

    Time Temperature Precipitation Wind Pressure Humidity
    00:00 -3°C° 0 mm 4 mps 752 mmHg 72%
    01:00 -2°C° 0 mm 3 mps 752 mmHg 76%
    02:00 -2°C° 0 mm 3 mps 751 mmHg 75%
    03:00 -3°C° 0 mm 4 mps 751 mmHg 74%
    04:00 -3°C° 0 mm 4 mps 750 mmHg 73%
    05:00 -3°C° 0 mm 4 mps 750 mmHg 71%
    06:00 -3°C° 0 mm 4 mps 750 mmHg 69%
    07:00 -4°C° 0 mm 5 mps 750 mmHg 67%
    08:00 -2°C° 0 mm 5 mps 750 mmHg 62%
    09:00 -1°C° 0 mm 5 mps 749 mmHg 56%
    10:00 -1°C° 0 mm 6 mps 749 mmHg 51%
    11:00 +1°C° 0 mm 5 mps 749 mmHg 48%
    12:00 +2°C° 0 mm 5 mps 749 mmHg 45%
    13:00 +3°C° 0 mm 5 mps 749 mmHg 41%
    14:00 +2°C° 0 mm 5 mps 748 mmHg 45%
    15:00 +1°C° 0 mm 5 mps 748 mmHg 49%
    16:00 0°C° 0 mm 5 mps 747 mmHg 53%
    17:00 0°C° 0 mm 5 mps 747 mmHg 53%
    18:00 -1°C° 0 mm 5 mps 747 mmHg 54%
    19:00 -1°C° 0 mm 5 mps 747 mmHg 54%
    20:00 -1°C° 0 mm 5 mps 747 mmHg 54%
    21:00 0°C° 0 mm 5 mps 746 mmHg 54%
    22:00 0°C° 0 mm 5 mps 746 mmHg 54%
    23:00 0°C° 0 mm 5 mps 746 mmHg 56%

    Tomorrow, 7 December, Saturday

    Time Temperature Precipitation Wind Pressure Humidity
    00:00 0°C° 0 mm 5 mps 745 mmHg 58%
    01:00 0°C° 0 mm 5 mps 745 mmHg 59%
    02:00 +1°C° 0 mm 5 mps 744 mmHg 61%
    03:00 +1°C° 0 mm 5 mps 744 mmHg 62%
    04:00 +1°C° 0 mm 5 mps 743 mmHg 64%
    05:00 +2°C° 0.1 mm 6 mps 743 mmHg 68%
    06:00 +2°C° 0.1 mm 6 mps 743 mmHg 73%
    07:00 +3°C° 0.1 mm 6 mps 743 mmHg 78%
    08:00 +3°C° 0.1 mm 7 mps 743 mmHg 77%
    09:00 +4°C° 0.1 mm 7 mps 743 mmHg 76%
    10:00 +5°C° 0.1 mm 7 mps 743 mmHg 75%
    11:00 +5°C° 0.2 mm 7 mps 743 mmHg 78%
    12:00 +5°C° 0.2 mm 8 mps 743 mmHg 80%
    13:00 +5°C° 0.2 mm 8 mps 743 mmHg 83%
    14:00 +5°C° 0.2 mm 7 mps 743 mmHg 83%
    15:00 +5°C° 0.2 mm 7 mps 744 mmHg 83%
    16:00 +5°C° 0.2 mm 7 mps 744 mmHg 83%
    17:00 +5°C° 0 mm 7 mps 744 mmHg 83%
    18:00 +5°C° 0 mm 7 mps 745 mmHg 82%
    19:00 +5°C° 0 mm 7 mps 745 mmHg 82%
    20:00 +5°C° 0.1 mm 7 mps 745 mmHg 82%
    21:00 +5°C° 0.1 mm 7 mps 745 mmHg 82%
    22:00 +5°C° 0.1 mm 6 mps 746 mmHg 82%
    23:00 +5°C° 0.2 mm 6 mps 746 mmHg 83%

    Day after tomorrow, 8 December, Sunday

    Time Temperature Precipitation Wind Pressure Humidity
    00:00 +5°C° 0.2 mm 6 mps 746 mmHg 84%
    01:00 +5°C° 0.2 mm 5 mps 746 mmHg 85%
    02:00 +5°C° 0.1 mm 5 mps 746 mmHg 84%
    03:00 +5°C° 0.1 mm 5 mps 746 mmHg 83%
    04:00 +5°C° 0.1 mm 5 mps 746 mmHg 82%
    05:00 +5°C° 0 mm 5 mps 746 mmHg 82%
    06:00 +4°C° 0 mm 4 mps 746 mmHg 82%
    07:00 +4°C° 0 mm 4 mps 746 mmHg 82%
    08:00 +5°C° 0 mm 5 mps 746 mmHg 79%
    09:00 +5°C° 0 mm 5 mps 746 mmHg 77%
    10:00 +5°C° 0 mm 6 mps 746 mmHg 74%
    11:00 +5°C° 0 mm 6 mps 745 mmHg 71%
    12:00 +5°C° 0 mm 7 mps 744 mmHg 69%
    13:00 +6°C° 0 mm 7 mps 744 mmHg 67%
    14:00 +5°C° 0 mm 7 mps 743 mmHg 68%
    15:00 +5°C° 0 mm 6 mps 742 mmHg 70%
    16:00 +5°C° 0 mm 6 mps 742 mmHg 72%
    17:00 +5°C° 0.1 mm 6 mps 741 mmHg 72%
    18:00 +6°C° 0.1 mm 7 mps 741 mmHg 73%
    19:00 +6°C° 0.1 mm 7 mps 740 mmHg 74%
    20:00 +6°C° 0.7 mm 7 mps 740 mmHg 77%
    21:00 +6°C° 0.7 mm 7 mps 740 mmHg 80%
    22:00 +6°C° 0.7 mm 7 mps 739 mmHg 83%
    23:00 +7°C° 0.1 mm 6 mps 739 mmHg 81%

    9 December, Monday

    Time Temperature Precipitation Wind Pressure Humidity
    00:00 +8°C° 0.1 mm 6 mps 739 mmHg 80%
    01:00 +8°C° 0.1 mm 6 mps 739 mmHg 78%
    02:00 +8°C° 0.6 mm 6 mps 738 mmHg 82%
    03:00 +7°C° 0.6 mm 5 mps 738 mmHg 86%
    04:00 +7°C° 0.6 mm 4 mps 738 mmHg 89%
    05:00 +7°C° 0.3 mm 4 mps 738 mmHg 86%
    06:00 +6°C° 0.3 mm 4 mps 738 mmHg 84%
    07:00 +6°C° 0.3 mm 4 mps 738 mmHg 81%
    08:00 +6°C° 0 mm 4 mps 738 mmHg 78%
    09:00 +6°C° 0 mm 4 mps 738 mmHg 74%
    10:00 +6°C° 0 mm 5 mps 738 mmHg 71%
    11:00 +7°C° 0 mm 5 mps 738 mmHg 69%
    12:00 +7°C° 0 mm 5 mps 738 mmHg 66%
    13:00 +7°C° 0 mm 5 mps 737 mmHg 64%
    14:00 +6°C° 0 mm 5 mps 737 mmHg 66%
    15:00 +6°C° 0 mm 4 mps 737 mmHg 68%
    16:00 +5°C° 0 mm 4 mps 737 mmHg 71%
    17:00 +5°C° 0 mm 4 mps 737 mmHg 73%
    18:00 +4°C° 0 mm 4 mps 737 mmHg 76%
    19:00 +4°C° 0 mm 4 mps 737 mmHg 79%
    20:00 +3°C° 0 mm 4 mps 736 mmHg 80%
    21:00 +3°C° 0 mm 4 mps 736 mmHg 82%
    22:00 +3°C° 0 mm 4 mps 736 mmHg 83%
    23:00 +3°C° 0 mm 4 mps 736 mmHg 83%

    10 December, Tuesday

    Time Temperature Precipitation Wind Pressure Humidity
    00:00 +3°C° 0 mm 4 mps 736 mmHg 83%
    01:00 +3°C° 0 mm 4 mps 736 mmHg 83%
    02:00 +3°C° 0.2 mm 4 mps 736 mmHg 85%
    03:00 +2°C° 0.2 mm 5 mps 737 mmHg 87%
    04:00 +3°C° 0.2 mm 5 mps 737 mmHg 89%
    05:00 +2°C° 0.5 mm 6 mps 738 mmHg 86%
    06:00 +2°C° 0.5 mm 7 mps 738 mmHg 83%
    07:00 +2°C° 0.5 mm 7 mps 739 mmHg 80%
    08:00 0°C° 0.1 mm 7 mps 740 mmHg 83%
    09:00 0°C° 0.1 mm 7 mps 741 mmHg 87%
    10:00 +1°C° 0.1 mm 6 mps 741 mmHg 91%
    11:00 0°C° 0.2 mm 7 mps 742 mmHg 89%
    12:00 +2°C° 0.2 mm 7 mps 743 mmHg 87%
    13:00 +1°C° 0.2 mm 8 mps 744 mmHg 85%
    14:00 +1°C° 0.2 mm 8 mps 745 mmHg 86%
    15:00 +1°C° 0.2 mm 8 mps 746 mmHg 86%
    16:00 0°C° 0.2 mm 8 mps 747 mmHg 87%
    17:00 0°C° 0.1 mm 7 mps 748 mmHg 82%
    18:00 -1°C° 0.1 mm 7 mps 749 mmHg 76%
    19:00 -1°C° 0.1 mm 6 mps 750 mmHg 71%
    20:00 -1°C° 0 mm 5 mps 751 mmHg 73%
    21:00 -2°C° 0 mm 4 mps 751 mmHg 76%
    22:00 -2°C° 0 mm 3 mps 751 mmHg 78%
    23:00 -2°C° 0 mm 3 mps 751 mmHg 78%

    11 December, Wednesday

    Time Temperature Precipitation Wind Pressure Humidity
    00:00 -2°C° 0 mm 3 mps 751 mmHg 79%
    01:00 -2°C° 0 mm 3 mps 750 mmHg 79%
    02:00 -2°C° 0 mm 3 mps 750 mmHg 75%
    03:00 -2°C° 0 mm 4 mps 749 mmHg 71%
    04:00 -2°C° 0 mm 5 mps 748 mmHg 67%
    05:00 -2°C° 0 mm 5 mps 748 mmHg 67%
    06:00 -2°C° 0 mm 5 mps 747 mmHg 68%
    07:00 -3°C° 0 mm 6 mps 746 mmHg 68%
    08:00 -2°C° 0 mm 6 mps 746 mmHg 64%
    09:00 -1°C° 0 mm 6 mps 745 mmHg 60%
    10:00 0°C° 0 mm 7 mps 745 mmHg 56%
    11:00 0°C° 0.1 mm 7 mps 744 mmHg 58%
    12:00 +2°C° 0.1 mm 6 mps 743 mmHg 60%
    13:00 +2°C° 0.1 mm 6 mps 743 mmHg 62%
    14:00 +2°C° 0.6 mm 6 mps 743 mmHg 67%
    15:00 +1°C° 0.6 mm 6 mps 743 mmHg 73%
    16:00 +1°C° 0.6 mm 6 mps 742 mmHg 79%
    17:00 +2°C° 0 mm 6 mps 742 mmHg 80%
    18:00 +2°C° 0 mm 6 mps 742 mmHg 82%
    19:00 +2°C° 0 mm 5 mps 742 mmHg 83%
    20:00 +2°C° 0.4 mm 5 mps 743 mmHg 85%
    21:00 +2°C° 0.4 mm 5 mps 743 mmHg 88%
    22:00 +2°C° 0.4 mm 5 mps 743 mmHg 91%
    23:00 +1°C° 0.3 mm 4 mps 743 mmHg 92%
    Show more